| time (UTC) | temp F | wind direction | speed MPH | gust MPH | rain 1hr in | rain 24hr in | rain mn in | humidity % | barometer mb |
| 20260506202438 | 60 | 0 | 3.0 | 8.0 | 0.00 | 0.01 | 0.01 | 78 | 1014.4 |
| 20260506201934 | 61 | 31 | 3.0 | 7.0 | 0.00 | 0.01 | 0.01 | 79 | 1014.4 |
| 20260506201432 | 61 | 348 | 3.0 | 5.0 | 0.00 | 0.01 | 0.01 | 78 | 1014.1 |
| 20260506200928 | 61 | 303 | 1.0 | 4.0 | 0.00 | 0.01 | 0.01 | 80 | 1014.4 |
| 20260506200425 | 60 | 359 | 0.0 | 4.0 | 0.00 | 0.01 | 0.01 | 81 | 1014.2 |
| 20260506195921 | 59 | 42 | 3.0 | 5.0 | 0.00 | 0.01 | 0.01 | 81 | 1014.0 |
| 20260506195419 | 59 | 63 | 0.0 | 9.0 | 0.00 | 0.01 | 0.01 | 82 | 1014.1 |
| 20260506194915 | 59 | 317 | 3.0 | 5.0 | 0.00 | 0.01 | 0.01 | 82 | 1014.4 |
| 20260506194412 | 58 | 33 | 2.0 | 6.0 | 0.00 | 0.01 | 0.01 | 83 | 1014.6 |
| 20260506193909 | 58 | 311 | 2.0 | 5.0 | 0.00 | 0.01 | 0.01 | 82 | 1014.7 |
| 20260506193406 | 59 | 349 | 3.0 | 4.0 | 0.00 | 0.01 | 0.01 | 82 | 1014.7 |
| 20260506192902 | 59 | 236 | 1.0 | 3.0 | 0.00 | 0.01 | 0.01 | 82 | 1014.8 |
| 20260506192359 | 58 | 273 | 0.0 | 4.0 | 0.00 | 0.01 | 0.01 | 83 | 1014.7 |
| 20260506191857 | 58 | 349 | 0.0 | 5.0 | 0.00 | 0.01 | 0.01 | 83 | 1014.6 |
| 20260506191353 | 58 | 85 | 2.0 | 3.0 | 0.00 | 0.01 | 0.01 | 83 | 1014.8 |
| 20260506190850 | 58 | 293 | 0.0 | 3.0 | 0.00 | 0.01 | 0.01 | 84 | 1014.6 |
| 20260506190346 | 58 | 109 | 1.0 | 4.0 | 0.00 | 0.01 | 0.01 | 84 | 1014.7 |
| 20260506185843 | 58 | 300 | 1.0 | 4.0 | 0.00 | 0.01 | 0.01 | 84 | 1014.9 |
| 20260506185340 | 58 | 324 | 0.0 | 5.0 | 0.00 | 0.01 | 0.01 | 84 | 1014.6 |
| 20260506184837 | 58 | 41 | 2.0 | 6.0 | 0.00 | 0.01 | 0.01 | 83 | 1014.7 |
| 20260506184334 | 58 | 310 | 1.0 | 7.0 | 0.00 | 0.01 | 0.01 | 83 | 1014.3 |
| 20260506183832 | 59 | 355 | 2.0 | 6.0 | 0.00 | 0.01 | 0.01 | 82 | 1014.0 |
| 20260506183326 | 59 | 339 | 2.0 | 8.0 | 0.00 | 0.01 | 0.01 | 82 | 1013.5 |
| 20260506182824 | 58 | 70 | 2.0 | 8.0 | 0.00 | 0.01 | 0.01 | 83 | 1013.2 |
| 20260506182321 | 58 | 1 | 3.0 | 8.0 | 0.00 | 0.01 | 0.01 | 83 | 1013.3 |
| 20260506181819 | 58 | 59 | 2.0 | 6.0 | 0.00 | 0.01 | 0.01 | 82 | 1013.2 |
| 20260506181317 | 58 | 10 | 2.0 | 7.0 | 0.00 | 0.01 | 0.01 | 83 | 1012.7 |
| 20260506180814 | 57 | 31 | 3.0 | 11.0 | 0.00 | 0.01 | 0.01 | 84 | 1013.1 |
| 20260506180309 | 58 | 4 | 4.0 | 18.0 | 0.00 | 0.01 | 0.01 | 84 | 1013.2 |
| 20260506175806 | 57 | 29 | 4.0 | 9.0 | 0.00 | 0.01 | 0.01 | 84 | 1013.5 |
| 20260506175306 | 57 | 0 | 2.0 | 7.0 | 0.00 | 0.01 | 0.01 | 85 | 1013.8 |
| 20260506174800 | 56 | 7 | 3.0 | 11.0 | 0.00 | 0.01 | 0.01 | 85 | 1013.5 |
| 20260506174257 | 56 | 300 | 2.0 | 7.0 | 0.00 | 0.01 | 0.01 | 87 | 1013.9 |
| 20260506173755 | 56 | 356 | 3.0 | 9.0 | 0.00 | 0.01 | 0.01 | 87 | 1014.2 |
| 20260506173252 | 55 | 276 | 2.0 | 9.0 | 0.00 | 0.01 | 0.01 | 87 | 1014.1 |
| 20260506172748 | 55 | 300 | 4.0 | 12.0 | 0.00 | 0.01 | 0.01 | 87 | 1014.1 |
| 20260506172245 | 56 | 8 | 4.0 | 8.0 | 0.00 | 0.01 | 0.01 | 87 | 1014.1 |
| 20260506171743 | 55 | 40 | 3.0 | 7.0 | 0.00 | 0.01 | 0.01 | 88 | 1014.3 |
| 20260506171240 | 55 | 355 | 1.0 | 7.0 | 0.00 | 0.01 | 0.01 | 88 | 1014.5 |
| 20260506170737 | 55 | 350 | 4.0 | 6.0 | 0.00 | 0.01 | 0.01 | 88 | 1014.2 |
| 20260506170233 | 55 | 318 | 4.0 | 9.0 | 0.00 | 0.01 | 0.01 | 88 | 1013.9 |
| 20260506165732 | 55 | 83 | 1.0 | 11.0 | 0.00 | 0.01 | 0.01 | 88 | 1014.4 |
| 20260506165229 | 55 | 297 | 3.0 | 6.0 | 0.00 | 0.01 | 0.01 | 88 | 1014.4 |
| 20260506164726 | 55 | 129 | 3.0 | 7.0 | 0.00 | 0.01 | 0.01 | 88 | 1014.6 |
| 20260506164223 | 56 | 15 | 3.0 | 6.0 | 0.00 | 0.01 | 0.01 | 88 | 1014.6 |
| 20260506163719 | 55 | 327 | 2.0 | 7.0 | 0.00 | 0.01 | 0.01 | 87 | 1014.7 |
| 20260506163214 | 56 | 325 | 2.0 | 5.0 | 0.00 | 0.01 | 0.01 | 89 | 1015.0 |
| 20260506162711 | 56 | 46 | 3.0 | 8.0 | 0.00 | 0.01 | 0.01 | 88 | 1015.0 |
| 20260506162208 | 57 | 16 | 0.0 | 6.0 | 0.00 | 0.01 | 0.01 | 90 | 1015.0 |
| 20260506161706 | 56 | 194 | 1.0 | 7.0 | 0.00 | 0.01 | 0.01 | 91 | 1014.9 |
| 20260506161203 | 55 | 291 | 3.0 | 5.0 | 0.00 | 0.01 | 0.01 | 92 | 1014.4 |
| 20260506160700 | 54 | 67 | 1.0 | 7.0 | 0.00 | 0.01 | 0.01 | 93 | 1014.5 |
| 20260506160157 | 54 | 74 | 2.0 | 6.0 | 0.00 | 0.01 | 0.01 | 93 | 1013.8 |
| 20260506155655 | 54 | 342 | 2.0 | 9.0 | 0.07 | 0.01 | 0.01 | 93 | 1013.6 |
| 20260506155152 | 55 | 247 | 3.0 | 6.0 | 0.00 | 0.00 | 0.00 | 84 | 1016.9 |
| 20260506153254 | 55 | 266 | 2.0 | 5.0 | 0.00 | 0.00 | 0.00 | 83 | 1016.5 |
| 20260506152750 | 55 | 264 | 2.0 | 4.0 | 0.00 | 0.00 | 0.00 | 84 | 1015.8 |
| 20260506152248 | 55 | 271 | 2.0 | 5.0 | 0.00 | 0.00 | 0.00 | 84 | 1015.6 |
| 20260506151747 | 55 | 30 | 2.0 | 7.0 | 0.00 | 0.00 | 0.00 | 84 | 1015.1 |
| 20260506151243 | 55 | 262 | 0.0 | 3.0 | 0.00 | 0.00 | 0.00 | 84 | 1015.3 |
| 20260506150740 | 55 | 26 | 2.0 | 5.0 | 0.00 | 0.00 | 0.00 | 83 | 1015.2 |
| 20260506150237 | 55 | 54 | 4.0 | 7.0 | 0.00 | 0.00 | 0.00 | 83 | 1013.7 |
| 20260506145734 | 55 | 359 | 4.0 | 7.0 | 0.00 | 0.00 | 0.00 | 83 | 1013.9 |
| 20260506145230 | 55 | 336 | 3.0 | 6.0 | 0.00 | 0.00 | 0.00 | 83 | 1014.5 |
| 20260506144728 | 55 | 280 | 1.0 | 7.0 | 0.00 | 0.00 | 0.00 | 83 | 1014.8 |
| 20260506144225 | 55 | 336 | 2.0 | 6.0 | 0.00 | 0.00 | 0.00 | 83 | 1014.7 |
| 20260506143722 | 55 | 354 | 2.0 | 5.0 | 0.00 | 0.00 | 0.00 | 83 | 1014.7 |
| 20260506143220 | 55 | 39 | 3.0 | 4.0 | 0.00 | 0.00 | 0.00 | 83 | 1014.7 |
| 20260506142718 | 55 | 288 | 2.0 | 10.0 | 0.00 | 0.00 | 0.00 | 83 | 1014.5 |
| 20260506142216 | 54 | 343 | 3.0 | 6.0 | 0.00 | 0.00 | 0.00 | 84 | 1014.0 |
| 20260506141713 | 54 | 25 | 3.0 | 8.0 | 0.00 | 0.00 | 0.00 | 84 | 1014.1 |
| 20260506141211 | 54 | 249 | 4.0 | 7.0 | 0.00 | 0.00 | 0.00 | 84 | 1014.2 |
| 20260506140709 | 54 | 329 | 2.0 | 6.0 | 0.00 | 0.00 | 0.00 | 84 | 1013.9 |
| 20260506140206 | 54 | 19 | 3.0 | 7.0 | 0.00 | 0.00 | 0.00 | 84 | 1013.9 |
| 20260506135702 | 54 | 339 | 4.0 | 10.0 | 0.00 | 0.00 | 0.00 | 84 | 1013.8 |
| 20260506135159 | 54 | 43 | 4.0 | 7.0 | 0.00 | 0.00 | 0.00 | 84 | 1013.6 |
| 20260506134655 | 54 | 75 | 4.0 | 9.0 | 0.00 | 0.00 | 0.00 | 84 | 1013.5 |
| 20260506134152 | 54 | 52 | 2.0 | 8.0 | 0.00 | 0.00 | 0.00 | 84 | 1013.6 |
| 20260506133649 | 54 | 317 | 4.0 | 8.0 | 0.00 | 0.00 | 0.00 | 84 | 1014.0 |
| 20260506133145 | 54 | 26 | 4.0 | 7.0 | 0.00 | 0.00 | 0.00 | 85 | 1013.6 |
| 20260506132643 | 54 | 310 | 4.0 | 9.0 | 0.00 | 0.00 | 0.00 | 85 | 1013.3 |
| 20260506132139 | 54 | 356 | 1.0 | 9.0 | 0.00 | 0.00 | 0.00 | 85 | 1013.1 |
| 20260506131637 | 54 | 215 | 2.0 | 5.0 | 0.00 | 0.00 | 0.00 | 86 | 1013.2 |
| 20260506131133 | 54 | 299 | 1.0 | 8.0 | 0.00 | 0.00 | 0.00 | 86 | 1013.3 |
| 20260506130630 | 54 | 51 | 4.0 | 8.0 | 0.00 | 0.00 | 0.00 | 86 | 1013.3 |
| 20260506130128 | 54 | 24 | 1.0 | 8.0 | 0.00 | 0.00 | 0.00 | 86 | 1013.1 |
| 20260506125626 | 54 | 336 | 5.0 | 9.0 | 0.00 | 0.00 | 0.00 | 86 | 1013.2 |
| 20260506125123 | 54 | 39 | 3.0 | 11.0 | 0.00 | 0.00 | 0.00 | 87 | 1013.0 |
| 20260506124621 | 54 | 0 | 5.0 | 9.0 | 0.00 | 0.00 | 0.00 | 87 | 1013.1 |
| 20260506124119 | 54 | 23 | 5.0 | 8.0 | 0.00 | 0.00 | 0.00 | 86 | 1012.7 |
| 20260506123616 | 54 | 281 | 2.0 | 6.0 | 0.00 | 0.00 | 0.00 | 86 | 1013.0 |
| 20260506123115 | 54 | 328 | 3.0 | 8.0 | 0.00 | 0.00 | 0.00 | 85 | 1012.9 |
| 20260506122611 | 54 | 46 | 1.0 | 7.0 | 0.00 | 0.00 | 0.00 | 85 | 1012.7 |
| 20260506122109 | 54 | 311 | 6.0 | 7.0 | 0.00 | 0.00 | 0.00 | 85 | 1012.7 |
| 20260506121606 | 54 | 35 | 2.0 | 7.0 | 0.00 | 0.00 | 0.00 | 85 | 1012.5 |
| 20260506121102 | 54 | 352 | 4.0 | 6.0 | 0.00 | 0.00 | 0.00 | 84 | 1012.6 |
| 20260506120601 | 54 | 306 | 4.0 | 7.0 | 0.00 | 0.00 | 0.00 | 83 | 1012.7 |
| 20260506120058 | 54 | 336 | 1.0 | 8.0 | 0.00 | 0.00 | 0.00 | 83 | 1012.6 |
| 20260506115556 | 54 | 310 | 3.0 | 6.0 | 0.00 | 0.00 | 0.00 | 83 | 1012.3 |
| 20260506115054 | 54 | 350 | 3.0 | 8.0 | 0.00 | 0.00 | 0.00 | 83 | 1012.4 |
| 20260506114551 | 55 | 254 | 0.0 | 8.0 | 0.00 | 0.00 | 0.00 | 83 | 1012.2 |
| 20260506114049 | 55 | 27 | 2.0 | 8.0 | 0.00 | 0.00 | 0.00 | 82 | 1012.2 |
| 20260506113546 | 55 | 351 | 5.0 | 8.0 | 0.00 | 0.00 | 0.00 | 81 | 1012.1 |
| 20260506113044 | 55 | 74 | 3.0 | 5.0 | 0.00 | 0.00 | 0.00 | 81 | 1012.1 |
| 20260506112540 | 55 | 55 | 4.0 | 8.0 | 0.00 | 0.00 | 0.00 | 80 | 1012.1 |
| 20260506112037 | 55 | 26 | 5.0 | 6.0 | 0.00 | 0.00 | 0.00 | 80 | 1011.8 |
| 20260506111535 | 55 | 298 | 4.0 | 8.0 | 0.00 | 0.00 | 0.00 | 80 | 1011.6 |
| 20260506111032 | 55 | 37 | 4.0 | 8.0 | 0.00 | 0.00 | 0.00 | 79 | 1011.6 |
| 20260506110530 | 55 | 296 | 1.0 | 9.0 | 0.00 | 0.00 | 0.00 | 79 | 1011.6 |
| 20260506110027 | 56 | 0 | 2.0 | 8.0 | 0.00 | 0.00 | 0.00 | 78 | 1011.5 |
| 20260506105523 | 56 | 338 | 2.0 | 7.0 | 0.00 | 0.00 | 0.00 | 78 | 1011.5 |
| 20260506105020 | 56 | 2 | 3.0 | 6.0 | 0.00 | 0.00 | 0.00 | 78 | 1011.5 |
| 20260506104518 | 56 | 117 | 2.0 | 7.0 | 0.00 | 0.00 | 0.00 | 78 | 1011.4 |
| 20260506104016 | 56 | 114 | 2.0 | 10.0 | 0.00 | 0.00 | 0.00 | 78 | 1011.2 |
| 20260506103513 | 56 | 10 | 2.0 | 7.0 | 0.00 | 0.00 | 0.00 | 77 | 1011.3 |
| 20260506103010 | 56 | 40 | 4.0 | 8.0 | 0.00 | 0.00 | 0.00 | 77 | 1010.9 |
| 20260506102508 | 57 | 45 | 0.0 | 6.0 | 0.00 | 0.00 | 0.00 | 77 | 1011.1 |
| 20260506102005 | 57 | 69 | 0.0 | 7.0 | 0.00 | 0.00 | 0.00 | 77 | 1010.9 |
| 20260506101501 | 57 | 54 | 1.0 | 6.0 | 0.00 | 0.00 | 0.00 | 77 | 1010.5 |
| 20260506100959 | 57 | 36 | 2.0 | 8.0 | 0.00 | 0.00 | 0.00 | 77 | 1010.5 |
| 20260506100457 | 57 | 22 | 3.0 | 6.0 | 0.00 | 0.00 | 0.00 | 77 | 1010.6 |
| 20260506095955 | 57 | 42 | 2.0 | 4.0 | 0.00 | 0.00 | 0.00 | 76 | 1010.5 |
| 20260506095453 | 57 | 330 | 1.0 | 7.0 | 0.00 | 0.00 | 0.00 | 76 | 1010.6 |
| 20260506094949 | 57 | 26 | 4.0 | 6.0 | 0.00 | 0.00 | 0.00 | 76 | 1010.4 |
| 20260506094447 | 57 | 39 | 2.0 | 4.0 | 0.00 | 0.00 | 0.00 | 76 | 1010.4 |
| 20260506093945 | 57 | 29 | 2.0 | 6.0 | 0.00 | 0.00 | 0.00 | 76 | 1010.5 |
| 20260506093443 | 57 | 16 | 3.0 | 5.0 | 0.00 | 0.00 | 0.00 | 77 | 1010.5 |
| 20260506092940 | 58 | 44 | 2.0 | 5.0 | 0.00 | 0.00 | 0.00 | 76 | 1010.5 |
| 20260506092438 | 58 | 259 | 2.0 | 7.0 | 0.00 | 0.00 | 0.00 | 77 | 1010.5 |
| 20260506091934 | 58 | 279 | 3.0 | 5.0 | 0.00 | 0.00 | 0.00 | 77 | 1010.2 |
| 20260506091433 | 58 | 354 | 1.0 | 6.0 | 0.00 | 0.00 | 0.00 | 77 | 1010.4 |
| 20260506090929 | 57 | 357 | 1.0 | 6.0 | 0.00 | 0.00 | 0.00 | 77 | 1010.4 |
| 20260506090427 | 58 | 268 | 1.0 | 9.0 | 0.00 | 0.00 | 0.00 | 77 | 1010.1 |
| 20260506085923 | 58 | 346 | 3.0 | 5.0 | 0.00 | 0.00 | 0.00 | 77 | 1010.2 |
| 20260506085420 | 58 | 315 | 1.0 | 5.0 | 0.00 | 0.00 | 0.00 | 77 | 1010.0 |
| 20260506084917 | 58 | 264 | 2.0 | 7.0 | 0.00 | 0.00 | 0.00 | 77 | 1009.9 |
| 20260506084414 | 58 | 350 | 3.0 | 6.0 | 0.00 | 0.00 | 0.00 | 77 | 1009.9 |
| 20260506083910 | 58 | 0 | 2.0 | 5.0 | 0.00 | 0.00 | 0.00 | 77 | 1010.1 |
| 20260506083407 | 58 | 1 | 4.0 | 8.0 | 0.00 | 0.00 | 0.00 | 76 | 1010.0 |
| 20260506082905 | 58 | 4 | 3.0 | 4.0 | 0.00 | 0.00 | 0.00 | 76 | 1010.0 |
| 20260506082401 | 58 | 303 | 2.0 | 6.0 | 0.00 | 0.00 | 0.00 | 77 | 1010.0 |
| 20260506081857 | 58 | 213 | 2.0 | 5.0 | 0.00 | 0.00 | 0.00 | 76 | 1009.6 |
| 20260506081355 | 58 | 290 | 2.0 | 7.0 | 0.00 | 0.00 | 0.00 | 77 | 1009.7 |
| 20260506080853 | 58 | 323 | 3.0 | 5.0 | 0.00 | 0.00 | 0.00 | 77 | 1009.7 |
| 20260506080349 | 58 | 354 | 3.0 | 5.0 | 0.00 | 0.00 | 0.00 | 77 | 1009.4 |
| 20260506073333 | 59 | 40 | 2.0 | 8.0 | 0.00 | 0.00 | 0.00 | 78 | 1009.9 |
| 20260506072830 | 59 | 313 | 2.0 | 7.0 | 0.00 | 0.00 | 0.00 | 78 | 1009.8 |
| 20260506072328 | 59 | 357 | 2.0 | 5.0 | 0.00 | 0.00 | 0.00 | 78 | 1009.9 |
| 20260506071825 | 59 | 331 | 3.0 | 5.0 | 0.00 | 0.00 | 0.00 | 78 | 1009.9 |
| 20260506071323 | 59 | 29 | 3.0 | 7.0 | 0.00 | 0.00 | 0.00 | 78 | 1010.0 |
| 20260506070820 | 59 | 328 | 1.0 | 6.0 | 0.00 | 0.00 | 0.00 | 78 | 1009.8 |
| 20260506070317 | 59 | 34 | 0.0 | 5.0 | 0.00 | 0.00 | 0.00 | 78 | 1009.6 |
| 20260506062254 | 60 | 311 | 3.0 | 7.0 | 0.00 | 0.00 | 0.00 | 79 | 1009.9 |
| 20260506061750 | 60 | 342 | 6.0 | 10.0 | 0.00 | 0.00 | 0.00 | 79 | 1009.7 |
| 20260506061247 | 60 | 32 | 5.0 | 7.0 | 0.00 | 0.00 | 0.00 | 79 | 1009.7 |
| 20260506060745 | 61 | 25 | 4.0 | 9.0 | 0.00 | 0.00 | 0.00 | 79 | 1009.6 |
| 20260506060243 | 62 | 2 | 3.0 | 6.0 | 0.00 | 0.00 | 0.00 | 79 | 1009.8 |
| 20260506051214 | 63 | 14 | 2.0 | 5.0 | 0.00 | 0.00 | 0.00 | 80 | 1009.5 |
| 20260506050713 | 63 | 258 | 2.0 | 8.0 | 0.00 | 0.00 | 0.00 | 80 | 1009.6 |
| 20260506050210 | 63 | 357 | 2.0 | 9.0 | 0.00 | 0.00 | 0.00 | 80 | 1009.4 |
| 20260506044701 | 64 | 0 | 3.0 | 7.0 | 0.00 | 0.00 | 0.00 | 79 | 1009.1 |
| 20260506044157 | 64 | 266 | 2.0 | 7.0 | 0.00 | 0.00 | 0.00 | 80 | 1009.5 |
| 20260506043654 | 64 | 118 | 2.0 | 9.0 | 0.00 | 0.00 | 0.00 | 80 | 1009.1 |
| 20260506043152 | 65 | 266 | 3.0 | 5.0 | 0.00 | 0.00 | 0.00 | 79 | 1009.1 |
| 20260506042651 | 65 | 256 | 2.0 | 6.0 | 0.00 | 0.00 | 0.00 | 79 | 1009.4 |
| 20260506042149 | 65 | 267 | 2.0 | 5.0 | 0.00 | 0.00 | 0.00 | 79 | 1009.0 |
| 20260506041652 | 65 | 339 | 2.0 | 12.0 | 0.00 | 0.00 | 0.00 | 80 | 1008.9 |
| 20260506041143 | 66 | 294 | 3.0 | 7.0 | 0.00 | 0.00 | 0.00 | 79 | 1008.8 |
| 20260506040642 | 66 | 248 | 2.0 | 8.0 | 0.00 | 0.00 | 0.00 | 79 | 1009.0 |
| 20260506040138 | 66 | 227 | 3.0 | 6.0 | 0.00 | 0.00 | 0.00 | 79 | 1008.8 |
| 20260506035635 | 67 | 40 | 2.0 | 7.0 | 0.00 | 0.00 | 0.00 | 79 | 1008.8 |
| 20260506035131 | 67 | 116 | 3.0 | 4.0 | 0.00 | 0.00 | 0.00 | 79 | 1008.9 |
| 20260506034629 | 67 | 263 | 1.0 | 6.0 | 0.00 | 0.00 | 0.00 | 79 | 1008.8 |
| 20260506034126 | 68 | 62 | 5.0 | 7.0 | 0.00 | 0.00 | 0.00 | 78 | 1008.7 |
| 20260506033623 | 68 | 251 | 3.0 | 12.0 | 0.00 | 0.00 | 0.00 | 78 | 1008.4 |
| 20260506033120 | 69 | 146 | 0.0 | 3.0 | 0.00 | 0.00 | 0.00 | 78 | 1008.4 |
| 20260506032617 | 69 | 17 | 4.0 | 7.0 | 0.00 | 0.00 | 0.00 | 77 | 1008.3 |
| 20260506032114 | 69 | 21 | 3.0 | 6.0 | 0.00 | 0.00 | 0.00 | 77 | 1008.3 |
| 20260506031611 | 69 | 23 | 2.0 | 6.0 | 0.00 | 0.00 | 0.00 | 77 | 1007.8 |
| 20260506031108 | 70 | 321 | 2.0 | 5.0 | 0.00 | 0.00 | 0.00 | 76 | 1008.2 |
| 20260506030607 | 70 | 3 | 1.0 | 6.0 | 0.00 | 0.00 | 0.00 | 76 | 1008.1 |
| 20260506030103 | 70 | 64 | 2.0 | 5.0 | 0.00 | 0.00 | 0.00 | 76 | 1008.3 |
| 20260506025600 | 70 | 345 | 3.0 | 8.0 | 0.00 | 0.00 | 0.00 | 76 | 1007.8 |
| 20260506025056 | 71 | 16 | 3.0 | 7.0 | 0.00 | 0.00 | 0.00 | 76 | 1007.7 |
| 20260506024553 | 71 | 33 | 4.0 | 6.0 | 0.00 | 0.00 | 0.00 | 76 | 1007.5 |
| 20260506024049 | 71 | 19 | 4.0 | 9.0 | 0.00 | 0.00 | 0.00 | 76 | 1007.1 |
| 20260506023540 | 71 | 219 | 3.0 | 5.0 | 0.00 | 0.00 | 0.00 | 76 | 1007.1 |
| 20260506023038 | 72 | 11 | 3.0 | 6.0 | 0.00 | 0.00 | 0.00 | 76 | 1007.0 |
| 20260506022535 | 73 | 5 | 4.0 | 7.0 | 0.00 | 0.00 | 0.00 | 75 | 1006.7 |
| 20260506022032 | 74 | 266 | 2.0 | 8.0 | 0.00 | 0.00 | 0.00 | 75 | 1006.7 |
| 20260506021529 | 74 | 229 | 0.0 | 5.0 | 0.00 | 0.00 | 0.00 | 74 | 1006.5 |
| 20260506021027 | 74 | 275 | 0.0 | 7.0 | 0.00 | 0.00 | 0.00 | 73 | 1006.3 |
| 20260506020524 | 74 | 36 | 3.0 | 5.0 | 0.00 | 0.00 | 0.00 | 73 | 1006.0 |
| 20260506020021 | 74 | 234 | 2.0 | 6.0 | 0.00 | 0.00 | 0.00 | 72 | 1006.5 |
| 20260506015519 | 74 | 321 | 3.0 | 6.0 | 0.00 | 0.00 | 0.00 | 72 | 1006.1 |
| 20260506015016 | 75 | 191 | 1.0 | 3.0 | 0.00 | 0.00 | 0.00 | 72 | 1006.3 |
| 20260506014513 | 75 | 198 | 2.0 | 3.0 | 0.00 | 0.00 | 0.00 | 72 | 1005.9 |
| 20260506014009 | 75 | 265 | 2.0 | 3.0 | 0.00 | 0.00 | 0.00 | 72 | 1006.0 |
| 20260506013507 | 75 | 250 | 2.0 | 3.0 | 0.00 | 0.00 | 0.00 | 71 | 1006.1 |
| 20260506013003 | 75 | 182 | 0.0 | 3.0 | 0.00 | 0.00 | 0.00 | 71 | 1005.8 |
| 20260506012459 | 75 | 266 | 0.0 | 5.0 | 0.00 | 0.00 | 0.00 | 71 | 1006.0 |
| 20260506011957 | 75 | 248 | 1.0 | 5.0 | 0.00 | 0.00 | 0.00 | 70 | 1006.2 |
| 20260506011454 | 75 | 244 | 2.0 | 5.0 | 0.00 | 0.00 | 0.00 | 70 | 1005.8 |
| 20260506010950 | 75 | 3 | 2.0 | 6.0 | 0.00 | 0.00 | 0.00 | 69 | 1005.8 |
| 20260506010450 | 75 | 304 | 3.0 | 11.0 | 0.00 | 0.00 | 0.00 | 69 | 1005.8 |
| 20260506005945 | 76 | 268 | 2.0 | 6.0 | 0.00 | 0.00 | 0.00 | 70 | 1005.5 |
| 20260506005443 | 76 | 244 | 2.0 | 7.0 | 0.00 | 0.00 | 0.00 | 71 | 1005.5 |
| 20260506004938 | 77 | 351 | 3.0 | 10.0 | 0.00 | 0.00 | 0.00 | 70 | 1005.6 |
| 20260506004436 | 78 | 221 | 3.0 | 7.0 | 0.00 | 0.00 | 0.00 | 69 | 1005.5 |
| 20260506003932 | 78 | 231 | 2.0 | 9.0 | 0.00 | 0.00 | 0.00 | 68 | 1005.2 |
| 20260506003429 | 79 | 346 | 3.0 | 4.0 | 0.00 | 0.00 | 0.00 | 67 | 1005.1 |
| 20260506002925 | 79 | 260 | 0.0 | 5.0 | 0.00 | 0.00 | 0.00 | 67 | 1005.3 |
| 20260506002421 | 80 | 230 | 3.0 | 9.0 | 0.00 | 0.00 | 0.00 | 66 | 1005.6 |
| 20260506001917 | 80 | 269 | 2.0 | 7.0 | 0.00 | 0.00 | 0.00 | 66 | 1005.3 |
| 20260506001414 | 80 | 32 | 1.0 | 6.0 | 0.00 | 0.00 | 0.00 | 65 | 1005.4 |
| 20260506000911 | 81 | 351 | 2.0 | 8.0 | 0.00 | 0.00 | 0.00 | 64 | 1005.3 |
| 20260506000409 | 82 | 237 | 2.0 | 7.0 | 0.00 | 0.00 | 0.00 | 63 | 1004.7 |
| 20260505235905 | 82 | 262 | 1.0 | 5.0 | 0.00 | 0.00 | 0.00 | 63 | 1004.6 |
| 20260505235404 | 83 | 61 | 3.0 | 6.0 | 0.00 | 0.00 | 0.00 | 61 | 1004.4 |
| 20260505234900 | 84 | 315 | 2.0 | 5.0 | 0.00 | 0.00 | 0.00 | 58 | 1004.6 |
| 20260505234358 | 85 | 255 | 2.0 | 5.0 | 0.00 | 0.00 | 0.00 | 55 | 1004.6 |
| 20260505233854 | 85 | 273 | 4.0 | 6.0 | 0.00 | 0.00 | 0.00 | 55 | 1004.6 |
| 20260505233352 | 85 | 231 | 3.0 | 4.0 | 0.00 | 0.00 | 0.00 | 62 | 1004.4 |
| 20260505232849 | 85 | 225 | 2.0 | 8.0 | 0.00 | 0.00 | 0.00 | 72 | 1004.6 |
| 20260505232347 | 85 | 182 | 2.0 | 5.0 | 0.00 | 0.00 | 0.00 | 71 | 1004.2 |
| 20260505231844 | 85 | 222 | 2.0 | 12.0 | 0.00 | 0.00 | 0.00 | 71 | 1003.8 |
| 20260505231341 | 86 | 184 | 3.0 | 5.0 | 0.00 | 0.00 | 0.00 | 70 | 1004.0 |
| 20260505230839 | 86 | 140 | 3.0 | 6.0 | 0.00 | 0.00 | 0.00 | 70 | 1003.8 |
| 20260505230336 | 86 | 240 | 1.0 | 7.0 | 0.00 | 0.00 | 0.00 | 70 | 1003.6 |
| 20260505225833 | 86 | 200 | 3.0 | 8.0 | 0.00 | 0.00 | 0.00 | 69 | 1003.6 |
| 20260505225330 | 87 | 239 | 3.0 | 7.0 | 0.00 | 0.00 | 0.00 | 68 | 1003.9 |
| 20260505224825 | 87 | 227 | 3.0 | 9.0 | 0.00 | 0.00 | 0.00 | 67 | 1003.9 |
| 20260505224323 | 87 | 210 | 2.0 | 7.0 | 0.00 | 0.00 | 0.00 | 67 | 1003.8 |
| 20260505223820 | 87 | 251 | 2.0 | 8.0 | 0.00 | 0.00 | 0.00 | 66 | 1003.6 |
| 20260505223317 | 89 | 119 | 2.0 | 6.0 | 0.00 | 0.00 | 0.00 | 63 | 1003.6 |
| 20260505222813 | 90 | 217 | 3.0 | 7.0 | 0.00 | 0.00 | 0.00 | 61 | 1003.7 |
| 20260505222309 | 92 | 182 | 4.0 | 8.0 | 0.00 | 0.00 | 0.00 | 58 | 1003.3 |
| 20260505221806 | 91 | 216 | 2.0 | 6.0 | 0.00 | 0.00 | 0.00 | 56 | 1003.6 |
| 20260505221303 | 91 | 253 | 3.0 | 7.0 | 0.00 | 0.00 | 0.00 | 55 | 1003.7 |
| 20260505220800 | 91 | 238 | 3.0 | 10.0 | 0.00 | 0.00 | 0.00 | 55 | 1003.5 |
| 20260505220257 | 90 | 218 | 2.0 | 8.0 | 0.00 | 0.00 | 0.00 | 54 | 1003.6 |
| 20260505215755 | 91 | 221 | 2.0 | 9.0 | 0.00 | 0.00 | 0.00 | 53 | 1003.9 |
| 20260505215253 | 93 | 217 | 4.0 | 10.0 | 0.00 | 0.00 | 0.00 | 51 | 1003.7 |
| 20260505214750 | 93 | 206 | 6.0 | 12.0 | 0.00 | 0.00 | 0.00 | 52 | 1003.6 |
| 20260505214248 | 91 | 218 | 6.0 | 14.0 | 0.00 | 0.00 | 0.00 | 54 | 1003.4 |
| 20260505213745 | 93 | 237 | 2.0 | 10.0 | 0.00 | 0.00 | 0.00 | 52 | 1003.7 |
| 20260505213242 | 93 | 204 | 5.0 | 9.0 | 0.00 | 0.00 | 0.00 | 52 | 1003.8 |
| 20260505212737 | 92 | 287 | 2.0 | 11.0 | 0.00 | 0.00 | 0.00 | 53 | 1003.8 |
| 20260505212235 | 90 | 178 | 5.0 | 10.0 | 0.00 | 0.00 | 0.00 | 55 | 1004.1 |
| 20260505211732 | 91 | 201 | 5.0 | 10.0 | 0.00 | 0.00 | 0.00 | 55 | 1004.1 |
| 20260505211229 | 93 | 206 | 8.0 | 12.0 | 0.00 | 0.00 | 0.00 | 52 | 1004.0 |
| 20260505210726 | 92 | 292 | 6.0 | 12.0 | 0.00 | 0.00 | 0.00 | 52 | 1003.9 |
| 20260505210222 | 92 | 218 | 3.0 | 12.0 | 0.00 | 0.00 | 0.00 | 53 | 1003.8 |
| 20260505205720 | 91 | 190 | 7.0 | 12.0 | 0.00 | 0.00 | 0.00 | 54 | 1003.9 |
| 20260505205218 | 92 | 261 | 4.0 | 14.0 | 0.00 | 0.00 | 0.00 | 54 | 1004.0 |
| 20260505204714 | 91 | 227 | 3.0 | 11.0 | 0.00 | 0.00 | 0.00 | 56 | 1004.2 |
| 20260505204212 | 91 | 227 | 2.0 | 8.0 | 0.00 | 0.00 | 0.00 | 57 | 1004.3 |
| 20260505203709 | 89 | 225 | 5.0 | 10.0 | 0.00 | 0.00 | 0.00 | 60 | 1004.5 |
| 20260505203206 | 89 | 203 | 7.0 | 11.0 | 0.00 | 0.00 | 0.00 | 60 | 1004.3 |
| 20260505202702 | 90 | 184 | 5.0 | 14.0 | 0.00 | 0.00 | 0.00 | 59 | 1004.6 |